Hourly Data Report for September 16, 2017

All times are specified in Local Standard Time (LST). Add 1 hour to adjust for Daylight Saving Time where and when it is observed.

SAINT JOHN A
NEW BRUNSWICK

45°18'58.000" N
65°53'24.000" W
108.80 m
8104901
71609
YSJ

Download Data

Hourly Data (September 2017)
Hourly Data Report for September 16, 2017
Temp Definition
°C
Dew Point Temp Definition
°C
Rel Hum Definition
%
Wind Dir Definition
10's deg

Wind Spd Definition
km/h
Visibility Definition
km
Stn Press Definition
kPa
Hmdx Definition


Wind Chill Definition


Weather Definition


TIME
00:00 Legend Double Dagger 15.8 15.7 99 19 5 0.8 100.78     Fog
01:00 Legend Double Dagger 15.6 15.5 99 19 12 1.6 100.77     Fog
02:00 Legend Double Dagger 15.7 15.6 99 21 9 1.2 100.74     Fog
03:00 Legend Double Dagger 15.9 15.8 99 19 5 1.2 100.73     Fog
04:00 Legend Double Dagger 15.7 15.6 99 18 7 1.2 100.74     Fog
05:00 Legend Double Dagger 15.3 15.2 99 21 8 1.2 100.75     Fog
06:00 Legend Double Dagger 15.4 15.3 99 19 4 1.2 100.75     Fog
07:00 Legend Double Dagger 16.1 16.0 99 19 7 1.6 100.76     Fog
08:00 Legend Double Dagger 16.6 16.5 99 24 11 1.2 100.75     Fog
09:00 Legend Double Dagger 16.8 16.5 98 28 12 1.6 100.84     Fog
10:00 Legend Double Dagger 17.5 17.2 98 22 5 1.6 100.78     Fog
11:00 Legend Double Dagger 18.5 17.5 94 19 10 4.0 100.74     Fog
12:00 Legend Double Dagger 18.1 16.9 93 22 15 4.0 100.73     Fog
13:00 Legend Double Dagger 19.0 16.7 86 20 16 24.1 100.71     LegendNANA
14:00 Legend Double Dagger 20.1 16.9 82 19 13 24.1 100.68 25   Mainly Clear
15:00 Legend Double Dagger 20.3 17.1 81 19 15 24.1 100.67 26   LegendNANA
16:00 Legend Double Dagger 20.1 16.9 81 19 12 24.1 100.66 25   LegendNANA
17:00 Legend Double Dagger 19.6 16.6 83 19 10 24.1 100.64     Mainly Clear
18:00 Legend Double Dagger 18.3 16.3 88 20 6 24.1 100.66     LegendNANA
19:00 Legend Double Dagger 14.9 14.6 98 19 12 0.8 100.69     Fog
20:00 Legend Double Dagger 14.3 14.2 99 17 5 0.8 100.75     Fog
21:00 Legend Double Dagger 14.5 14.4 99 15 5 0.8 100.77     Fog
22:00 Legend Double Dagger 14.1 14.0 99 16 8 0.8 100.81     Fog
23:00 Legend Double Dagger 15.1 15.0 99 12 9 1.6 100.83     Fog

Notes on Data Quality.

Legend

  • E = Estimated
  • M = Missing
  • NA = Not Available
  • ‡ = Partner data that is not subject to review by the National Climate Archives
Date modified: